SCP
0 0 1 1 1 1 1 1 0 0 0 0 0 0 0 0 0 0 0 0 0 0 0 0 0 0 0 0 0 0 0 0 0 0 0 0 0 0 0 0 0 0 0
0 0 1 1 1 1 1 1 1 0 0 0 0 0 0 0 0 0 0 0 0 0 0 0 0 0 0 0 0 0 0 0 0 0 0 0 0 0 0 0 0 0 0
1 1 1 1 1 1 1 1 1 1 1 1 0 0 0 0 0 0 0 0 0 0 0 0 0 0 0 0 0 0 0 0 0 0 0 0 0 0 0 0 0 0 0
1 1 1 1 1 1 1 1 1 1 1 1 1 0 0 0 0 0 0 0 0 0 0 0 0 0 0 0 0 0 0 0 0 0 0 0 0 0 0 0 0 0 0
1 1 1 0 0 0 1 1 1 1 1 1 1 1 1 0 0 0 0 0 0 0 0 0 0 0 0 0 0 0 0 0 0 0 0 0 0 0 0 0 0 0 0
0 0 0 0 0 0 0 0 1 1 1 1 1 1 1 0 0 0 0 0 0 0 0 0 0 0 0 0 0 0 0 0 0 0 0 0 0 0 0 0 0 0 0
0 0 0 0 1 0 0 0 0 0 0 0 0 1 1 1 0 0 0 0 0 0 0 0 0 0 0 0 0 0 0 0 0 0 0 0 0 0 0 0 0 0 0
0 0 0 0 0 0 0 0 0 0 0 0 0 0 0 0 0 0 0 0 0 0 0 0 0 0 0 0 0 0 0 0 0 0 0 0 0 0 0 0 0 0 0
0 0 0 0 0 0 0 0 0 0 0 0 0 0 0 0 0 0 0 0 0 0 0 0 0 0 0 1 1 1 0 0 0 0 0 0 0 0 0 0 0 0 0
0 0 0 0 0 0 0 0 0 0 0 0 0 0 0 0 0 0 0 1 1 1 1 1 0 0 1 1 1 1 1 1 1 1 1 0 0 0 0 0 0 0 0
0 0 0 0 0 0 1 1 0 0 0 0 0 0 0 0 0 0 0 1 1 1 1 1 1 1 1 1 1 1 1 1 1 1 1 1 0 0 0 0 0 0 0
0 0 0 0 0 0 1 1 0 0 0 0 0 0 0 0 0 0 0 0 1 1 1 1 1 1 1 1 1 1 1 1 1 1 1 1 1 1 0 0 0 0 0
0 0 0 0 0 0 0 1 0 0 0 0 0 0 0 0 0 0 0 0 0 1 1 1 1 1 1 1 1 1 1 1 1 1 1 1 1 1 1 1 1 0 0
0 0 0 0 0 0 0 1 1 0 0 0 0 0 0 0 0 0 0 0 0 0 1 1 1 1 1 1 1 1 1 1 1 1 1 1 1 1 1 1 1 1 1
0 0 0 0 0 0 0 1 1 1 0 0 0 0 0 0 0 0 0 0 0 0 0 0 1 1 1 1 1 1 1 1 1 1 1 1 1 0 0 1 1 1 1
0 0 0 0 0 0 0 0 1 1 1 1 0 0 0 0 0 0 0 0 0 0 0 0 0 0 0 0 0 0 1 1 1 1 1 1 0 0 0 0 0 0 0
0 0 0 0 0 0 0 1 1 1 1 1 0 0 0 0 0 0 0 0 0 0 0 0 0 0 0 0 0 0 0 1 1 1 1 1 1 0 0 0 0 0 0
0 0 0 0 0 0 1 1 1 1 1 1 0 0 0 0 0 0 0 0 0 0 0 0 0 0 0 0 0 0 0 0 1 1 1 1 1 1 0 0 0 0 0
0 0 0 1 1 1 1 1 1 1 1 1 0 0 0 0 0 0 0 0 0 0 0 0 0 0 0 0 0 0 0 0 0 0 0 0 0 0 0 0 1 1 1
0 0 0 0 1 1 1 1 1 1 1 0 0 0 0 0 0 0 0 0 0 0 0 0 0 0 0 0 0 0 0 0 0 0 0 0 0 0 0 0 1 1 1
0 0 0 0 0 0 0 0 0 0 0 0 0 0 0 0 0 0 0 0 0 0 0 0 0 0 0 0 0 0 0 0 0 0 0 0 0 0 0 0 0 0 0
0 0 0 0 0 0 0 0 0 0 0 0 0 0 0 0 0 0 0 0 0 0 0 0 0 0 0 0 0 0 0 0 0 0 0 0 0 0 0 0 0 0 0
0 0 0 0 0 0 0 0 0 0 0 0 0 0 0 0 0 0 0 0 0 0 0 0 0 0 0 0 0 0 0 0 0 0 0 0 0 0 0 0 0 0 0
0 0 0 0 0 0 0 0 0 0 0 0 0 0 0 0 0 0 0 0 0 0 0 0 0 0 0 0 0 0 0 0 0 0 0 0 0 0 0 0 0 0 0
0 0 0 0 0 0 0 0 0 0 0 0 0 0 0 0 0 0 0 0 0 0 0 0 0 0 0 0 0 0 0 0 0 0 0 0 0 0 0 0 0 0 0
0 0 0 0 0 0 0 0 0 0 0 0 0 0 0 0 0 0 0 0 0 0 0 0 0 0 0 0 0 0 0 0 0 0 0 0 0 0 0 0 0 0 0
Wind_Speed
6 6 6 5 5 5 5 5 4 4 3 2 2 2 2 2 2 2 2 2 2 2 2 1 2 1 2 1 2 2 3 2 1 2 2 2 2 2 1 1 1 2 2
7 6 6 5 5 5 5 5 4 4 4 2 1 1 1 1 1 1 2 2 2 2 2 2 2 2 2 3 2 2 1 1 1 1 1 2 4 3 2 2 2 2 2
7 7 6 5 5 5 5 4 4 4 3 3 2 1 1 2 2 2 2 2 2 2 2 2 2 1 2 2 2 3 3 2 2 0 2 1 1 2 3 3 2 2 1
6 6 6 5 5 6 5 5 5 4 3 3 3 3 2 2 1 1 1 2 2 2 2 3 2 2 2 2 3 3 2 2 2 2 1 2 2 1 2 3 3 2 2
6 6 5 5 5 5 4 4 4 4 3 2 2 3 3 2 2 2 1 1 2 2 2 2 2 3 2 2 2 2 3 2 2 1 1 1 1 2 2 2 2 2 2
6 5 5 5 5 5 4 4 4 3 3 3 2 2 2 2 2 2 2 2 2 1 2 2 2 2 2 2 3 2 4 3 2 2 1 2 2 1 2 2 2 2 2
5 6 6 6 5 5 4 4 4 3 3 3 2 2 2 3 3 3 2 2 2 2 2 2 2 2 2 2 2 3 3 3 3 3 2 2 2 2 2 2 2 2 2
5 5 6 6 5 6 5 4 4 3 3 3 2 2 2 2 2 2 2 2 2 1 1 2 2 2 2 2 2 3 3 3 4 4 3 3 2 2 2 2 2 2 2
5 4 5 5 5 5 5 4 4 3 3 2 2 2 2 2 1 1 2 1 1 1 1 2 3 3 2 3 3 3 3 3 4 4 4 3 2 2 3 3 3 3 3
4 4 4 4 4 5 5 4 3 3 3 3 2 2 2 1 1 1 1 1 1 1 2 2 3 3 3 3 3 4 4 3 3 3 3 4 3 3 3 3 3 3 4
4 4 4 4 4 4 4 4 4 3 3 2 2 2 2 1 1 1 1 1 2 2 3 3 3 3 4 4 4 4 4 4 4 4 4 5 4 3 3 3 3 3 3
3 4 4 4 4 4 4 4 3 3 3 2 2 2 1 1 2 2 2 2 2 3 3 3 4 4 4 4 4 5 5 4 5 5 4 5 4 4 4 3 4 3 3
3 3 3 3 3 3 3 3 3 3 3 2 2 2 2 2 2 2 2 3 3 3 3 4 4 4 4 5 5 5 5 5 4 4 5 5 5 5 4 5 4 4 4
3 2 2 2 3 3 2 3 3 3 2 2 2 2 2 3 3 2 3 3 3 3 3 4 4 4 4 5 5 5 5 4 4 4 5 5 5 5 5 5 5 4 4
2 2 1 1 2 2 2 2 2 2 2 2 2 2 3 3 3 3 3 3 4 3 3 4 4 4 4 4 4 4 4 4 4 4 4 5 4 3 3 4 4 4 4
1 1 1 1 2 2 2 2 2 2 3 3 3 2 3 3 3 3 4 4 4 4 4 4 4 4 3 1 1 4 4 4 4 4 4 5 5 4 4 3 3 4 5
1 1 1 1 2 2 2 2 2 2 3 3 3 3 3 3 4 4 4 4 4 4 5 5 4 4 3 2 3 4 4 4 4 4 4 4 3 5 5 5 6 5 5
1 1 1 1 1 2 2 2 3 3 3 3 3 3 3 3 4 4 4 4 4 4 4 4 5 4 4 4 5 5 6 5 5 5 5 5 4 4 4 5 5 5 6
1 1 1 1 1 2 2 3 3 3 3 2 2 3 3 3 4 4 4 4 4 4 4 5 5 5 4 5 5 6 5 5 6 6 6 5 6 3 4 6 6 6 5
1 1 1 1 1 1 2 3 3 2 2 2 3 3 3 3 4 3 3 3 3 4 4 4 4 5 5 5 7 7 6 5 5 5 5 6 6 4 5 7 7 7 6
2 1 1 1 1 2 2 3 3 2 2 2 3 3 3 4 4 3 3 3 3 3 3 3 4 4 4 5 6 7 6 5 5 4 4 4 7 7 7 7 7 6 5
2 2 2 1 1 2 2 2 2 2 2 3 3 3 3 3 3 3 3 3 3 3 3 4 4 3 4 4 5 6 7 6 5 5 4 2 6 7 8 7 6 5 6
2 2 1 1 1 2 2 3 3 2 3 3 3 3 3 3 3 3 3 3 3 3 3 3 3 3 3 3 4 6 7 7 6 4 2 2 5 7 7 9 8 8 7
1 1 2 2 1 2 2 3 3 2 3 3 3 3 3 3 2 3 3 3 3 3 3 3 3 3 3 3 3 4 4 6 6 5 4 6 7 7 5 6 8 7 6
1 1 2 2 2 2 2 2 2 2 3 3 3 3 3 3 2 2 2 3 2 2 3 3 3 3 3 1 2 2 3 3 2 2 3 4 4 5 5 5 5 5 6
2 2 2 2 1 1 2 2 2 3 3 3 3 3 3 2 3 3 2 0 1 1 2 4 4 2 2 1 1 3 3 1 1 3 4 4 4 4 4 4 4 4 4
Wind_Direction
173 170 173 168 160 153 152 161 160 157 172 181 206 195 193 194 190 182 160 192 193 178 214 214 155 200 164 170 176 184 166 159 166 170 156 147 139 126 128 135 122 126 127
174 173 173 169 167 158 157 156 156 163 184 178 213 232 239 224 203 165 141 188 199 211 193 213 206 183 177 175 177 192 200 160 171 238 204 167 157 155 130 131 128 117 133
183 178 171 168 159 151 156 153 151 163 184 180 187 184 196 216 191 189 179 194 193 205 221 204 228 212 213 174 190 194 191 194 176 278 298 252 148 142 139 141 128 125 121
186 182 174 169 161 155 155 151 149 150 160 185 196 196 209 215 218 224 177 185 194 202 202 208 213 232 224 194 205 186 202 208 201 175 258 319 2 279 159 160 151 158 172
181 179 175 173 161 151 149 144 145 144 150 183 192 210 221 219 210 205 166 202 181 206 207 207 214 219 226 205 207 201 216 210 226 226 195 180 200 255 249 182 163 174 175
168 166 166 167 157 152 148 146 149 149 158 173 174 203 213 214 222 218 204 210 201 211 210 209 214 221 227 210 203 214 209 212 217 251 242 221 228 230 244 221 210 194 175
162 164 168 163 156 152 154 156 155 158 172 174 178 188 203 206 210 226 224 248 236 216 224 223 212 221 221 216 207 208 226 212 211 222 237 244 245 262 267 255 239 233 198
166 169 169 165 163 161 163 160 157 163 171 175 179 186 205 219 204 218 239 226 246 266 259 231 219 214 212 215 208 213 217 216 225 226 229 244 235 237 244 256 260 248 223
164 166 165 167 167 164 161 161 161 166 176 179 179 179 203 237 235 219 230 231 246 249 248 242 225 216 212 220 222 219 221 220 226 221 215 231 223 230 244 245 252 263 263
161 165 164 166 170 167 162 166 172 173 176 182 198 177 186 210 227 249 259 246 249 265 262 254 230 221 219 217 223 225 210 216 224 226 226 234 235 229 232 237 242 253 263
160 159 154 153 162 160 157 164 165 168 173 179 191 183 183 193 211 225 248 257 252 243 244 247 243 227 222 223 221 233 226 223 226 225 223 230 246 247 243 235 235 241 248
153 151 148 148 148 152 158 158 163 165 166 170 183 184 191 196 215 223 246 254 260 256 249 248 247 239 231 232 231 230 230 229 232 230 229 230 225 226 245 242 236 236 245
141 143 145 146 148 151 158 162 168 163 165 175 189 195 215 218 229 237 252 253 249 254 255 248 246 246 241 236 234 233 233 230 234 234 230 231 229 228 228 235 238 235 230
144 139 140 151 157 158 162 170 169 167 175 188 198 206 224 228 233 240 245 249 246 244 248 249 247 247 245 240 238 234 231 232 233 231 230 233 232 233 230 229 233 242 245
155 151 159 158 174 169 170 177 172 178 194 208 211 215 228 231 234 240 244 246 246 243 242 243 246 247 242 238 243 239 231 230 230 229 226 227 230 259 259 258 243 238 244
169 168 178 185 192 188 188 182 179 194 205 219 223 222 228 235 239 244 245 245 246 246 241 240 241 246 248 161 250 260 245 237 233 231 227 216 206 201 212 247 271 272 251
185 203 199 196 203 209 210 207 200 203 209 220 226 224 233 239 244 246 244 244 244 242 242 241 239 242 234 190 215 239 249 244 241 240 238 237 214 211 217 207 212 229 244
189 207 215 193 199 199 208 212 209 203 213 223 233 235 239 241 245 246 246 247 246 244 241 239 238 237 224 195 211 225 235 244 240 238 239 238 241 230 233 234 233 237 235
162 166 224 195 191 199 203 207 215 214 220 230 244 248 244 244 244 247 246 244 243 245 242 236 234 232 223 197 204 224 235 233 238 239 239 235 233 213 228 238 239 239 239
117 137 171 180 184 195 196 202 218 226 241 245 250 255 256 251 246 247 247 243 240 242 248 241 239 234 230 196 203 220 237 233 239 235 231 224 227 209 211 233 240 242 243
106 131 143 156 208 220 216 219 233 244 258 257 250 248 253 255 250 246 246 243 242 245 252 248 242 237 237 200 202 221 240 240 240 242 237 217 188 204 212 232 242 248 259
127 148 157 172 203 214 219 232 248 266 271 266 256 251 249 250 243 241 242 239 240 237 242 243 248 236 223 222 201 212 233 260 251 250 251 228 185 201 214 226 236 243 249
163 177 185 194 215 221 230 241 243 255 257 260 257 255 252 245 243 239 237 234 233 248 251 242 242 241 221 191 187 209 227 239 249 262 290 273 208 203 210 215 222 226 232
190 208 217 220 224 239 250 245 243 250 253 251 250 242 237 236 236 251 250 254 252 251 254 249 251 252 239 228 200 203 209 211 223 237 232 217 222 228 236 213 211 227 241
198 220 238 247 256 242 244 243 238 236 245 251 254 244 235 232 232 242 274 264 270 288 277 264 256 260 257 296 343 277 248 252 251 242 241 237 220 217 219 225 226 225 223
208 218 235 244 255 245 239 237 241 237 241 249 253 255 249 236 235 227 229 342 286 306 281 296 289 285 316 343 270 275 286 288 232 240 240 244 243 238 232 231 229 227 235